Location: Bakov nad Jizerou
(50.4784°N, 14.9394°E)
Time: 17:22:51
(UTC+00:00)

Cosmos 2322 - Pass Details

Date: 27 October 2021
Orbit: 841 x 854 km, 71.0° (Epoch: 04 December)

Event Time Altitude Azimuth Distance (km) Brightness Sun altitude
Exits shadow 03:12:14 23° 332° (NNW) 1,760 5.2 -24.4°
Maximum altitude 03:16:00 87° 62° (ENE) 856 3.6 -23.8°
Drops below altitude 10° 03:21:40 10° 151° (SSE) 2,463 6.4 -22.9°
Sets 03:24:06 0° 152° (SSE) 3,393 7.1 -22.6°
